Time,TemperatureF,DewpointF,PressureIn,WindDirection,WindDirectionDegrees,WindSpeedMPH,WindSpeedGustMPH,Humidity,HourlyPrecipIn,Conditions,Clouds,dailyrainin,SoftwareType,DateUTC
2013-05-17 00:10:00,70.3,63.0,30.07,SE,130,3.0,7.0,78,0.00,,,0.00,weatherlink.com 1.10,2013-05-17 04:10:00,
2013-05-17 00:25:00,70.1,64.0,30.07,SE,128,1.0,5.0,80,0.00,,,0.00,weatherlink.com 1.10,2013-05-17 04:25:00,
2013-05-17 00:40:00,70.6,64.0,30.07,SE,140,5.0,6.0,80,0.00,,,0.00,weatherlink.com 1.10,2013-05-17 04:40:00,
2013-05-17 00:55:00,70.5,64.0,30.06,SSE,161,7.0,8.0,81,0.00,,,0.00,weatherlink.com 1.10,2013-05-17 04:55:00,
2013-05-17 01:10:00,70.2,64.0,30.06,SSE,159,4.0,7.0,81,0.00,,,0.00,weatherlink.com 1.10,2013-05-17 05:10:00,
2013-05-17 01:25:00,69.9,64.0,30.06,SSW,196,5.0,7.0,82,0.00,,,0.00,weatherlink.com 1.10,2013-05-17 05:25:00,
2013-05-17 01:40:00,69.6,64.0,30.05,SSE,153,5.0,7.0,82,0.00,,,0.00,weatherlink.com 1.10,2013-05-17 05:40:00,
2013-05-17 01:55:00,69.2,64.0,30.05,SE,144,6.0,8.0,83,0.00,,,0.00,weatherlink.com 1.10,2013-05-17 05:55:00,
2013-05-17 02:10:00,68.9,64.0,30.05,SSE,157,3.0,5.0,85,0.00,,,0.00,weatherlink.com 1.10,2013-05-17 06:10:00,
2013-05-17 02:25:00,68.8,65.0,30.04,SSE,148,3.0,5.0,86,0.00,,,0.00,weatherlink.com 1.10,2013-05-17 06:25:00,
2013-05-17 02:40:00,68.8,65.0,30.04,South,171,2.0,6.0,86,0.00,,,0.00,weatherlink.com 1.10,2013-05-17 06:40:00,
2013-05-17 02:55:00,68.2,64.0,30.04,SSW,198,2.0,4.0,86,0.00,,,0.00,weatherlink.com 1.10,2013-05-17 06:55:00,
2013-05-17 03:10:00,68.4,64.0,30.03,SSE,158,1.0,4.0,87,0.00,,,0.00,weatherlink.com 1.10,2013-05-17 07:10:00,
2013-05-17 03:25:00,68.2,64.0,30.04,SSE,151,0.0,2.0,87,0.00,,,0.00,weatherlink.com 1.10,2013-05-17 07:25:00,
2013-05-17 03:40:00,67.7,64.0,30.04,SSE,153,0.0,2.0,88,0.00,,,0.00,weatherlink.com 1.10,2013-05-17 07:40:00,
2013-05-17 03:55:00,67.6,64.0,30.04,SSE,153,0.0,3.0,89,0.00,,,0.00,weatherlink.com 1.10,2013-05-17 07:55:00,
2013-05-17 04:10:00,67.5,64.0,30.04,SSE,153,1.0,3.0,88,0.00,,,0.00,weatherlink.com 1.10,2013-05-17 08:10:00,
2013-05-17 04:25:00,67.2,63.0,30.04,SSE,153,0.0,3.0,87,0.00,,,0.00,weatherlink.com 1.10,2013-05-17 08:25:00,
2013-05-17 04:40:00,66.9,63.0,30.04,SSE,153,0.0,1.0,88,0.00,,,0.00,weatherlink.com 1.10,2013-05-17 08:40:00,
2013-05-17 04:55:00,66.9,64.0,30.04,SSE,153,0.0,2.0,89,0.00,,,0.00,weatherlink.com 1.10,2013-05-17 08:55:00,
2013-05-17 05:10:00,66.9,64.0,30.04,SSE,153,0.0,2.0,89,0.00,,,0.00,weatherlink.com 1.10,2013-05-17 09:10:00,
2013-05-17 05:25:00,67.0,64.0,30.04,SSE,153,0.0,4.0,90,0.00,,,0.00,weatherlink.com 1.10,2013-05-17 09:25:00,
2013-05-17 05:40:00,66.9,64.0,30.05,SE,129,0.0,4.0,89,0.00,,,0.00,weatherlink.com 1.10,2013-05-17 09:40:00,
2013-05-17 05:55:00,66.6,64.0,30.05,SE,129,0.0,1.0,90,0.00,,,0.00,weatherlink.com 1.10,2013-05-17 09:55:00,
2013-05-17 06:10:00,66.5,64.0,30.06,SE,129,0.0,1.0,91,0.00,,,0.00,weatherlink.com 1.10,2013-05-17 10:10:00,
2013-05-17 06:25:00,66.4,64.0,30.06,South,178,1.0,3.0,92,0.00,,,0.00,weatherlink.com 1.10,2013-05-17 10:25:00,
2013-05-17 06:40:00,66.5,64.0,30.07,South,178,0.0,0.0,92,0.00,,,0.00,weatherlink.com 1.10,2013-05-17 10:40:00,
2013-05-17 06:55:00,66.9,65.0,30.07,South,178,1.0,2.0,93,0.00,,,0.00,weatherlink.com 1.10,2013-05-17 10:55:00,
2013-05-17 07:10:00,67.4,65.0,30.07,South,178,0.0,2.0,93,0.00,,,0.00,weatherlink.com 1.10,2013-05-17 11:10:00,
2013-05-17 07:25:00,68.1,66.0,30.07,South,178,0.0,1.0,92,0.00,,,0.00,weatherlink.com 1.10,2013-05-17 11:25:00,
2013-05-17 07:40:00,68.8,66.0,30.07,South,178,0.0,2.0,90,0.00,,,0.00,weatherlink.com 1.10,2013-05-17 11:40:00,
2013-05-17 07:55:00,69.4,66.0,30.08,South,178,0.0,2.0,89,0.00,,,0.00,weatherlink.com 1.10,2013-05-17 11:55:00,
2013-05-17 08:10:00,70.6,67.0,30.08,South,178,0.0,1.0,87,0.00,,,0.00,weatherlink.com 1.10,2013-05-17 12:10:00,
2013-05-17 08:25:00,71.3,67.0,30.08,SE,146,3.0,4.0,86,0.00,,,0.00,weatherlink.com 1.10,2013-05-17 12:25:00,
2013-05-17 08:40:00,72.9,68.0,30.08,ESE,123,2.0,5.0,83,0.00,,,0.00,weatherlink.com 1.10,2013-05-17 12:40:00,
2013-05-17 08:56:00,73.6,67.0,30.09,SE,138,3.0,7.0,80,0.00,,,0.00,weatherlink.com 1.10,2013-05-17 12:56:00,
2013-05-17 09:11:00,74.7,67.0,30.09,SE,138,5.0,7.0,77,0.00,,,0.00,weatherlink.com 1.10,2013-05-17 13:11:00,
2013-05-17 09:26:00,75.7,66.0,30.09,South,180,5.0,7.0,72,0.00,,,0.00,weatherlink.com 1.10,2013-05-17 13:26:00,
2013-05-17 09:41:00,76.8,66.0,30.09,SE,126,5.0,7.0,70,0.00,,,0.00,weatherlink.com 1.10,2013-05-17 13:41:00,
2013-05-17 09:56:00,77.9,66.0,30.10,SE,134,3.0,6.0,67,0.00,,,0.00,weatherlink.com 1.10,2013-05-17 13:56:00,
2013-05-17 10:11:00,78.7,66.0,30.10,SW,236,5.0,7.0,65,0.00,,,0.00,weatherlink.com 1.10,2013-05-17 14:11:00,
2013-05-17 10:26:00,78.7,66.0,30.10,SSE,147,1.0,5.0,66,0.00,,,0.00,weatherlink.com 1.10,2013-05-17 14:26:00,
2013-05-17 10:41:00,79.7,66.0,30.10,ESE,106,2.0,5.0,64,0.00,,,0.00,weatherlink.com 1.10,2013-05-17 14:41:00,
2013-05-17 10:56:00,80.9,66.0,30.10,East,86,3.0,6.0,60,0.00,,,0.00,weatherlink.com 1.10,2013-05-17 14:56:00,
2013-05-17 11:11:00,81.0,66.0,30.10,SSE,150,2.0,5.0,60,0.00,,,0.00,weatherlink.com 1.10,2013-05-17 15:11:00,
2013-05-17 11:26:00,82.1,65.0,30.10,North,355,2.0,4.0,57,0.00,,,0.00,weatherlink.com 1.10,2013-05-17 15:26:00,
2013-05-17 11:41:00,79.9,65.0,30.10,NNE,19,1.0,5.0,60,0.00,,,0.00,weatherlink.com 1.10,2013-05-17 15:41:00,
2013-05-17 11:56:00,82.0,65.0,30.09,SE,134,5.0,9.0,56,0.00,,,0.00,weatherlink.com 1.10,2013-05-17 15:56:00,
2013-05-17 12:11:00,82.0,65.0,30.09,ENE,63,4.0,10.0,56,0.00,,,0.00,weatherlink.com 1.10,2013-05-17 16:11:00,
2013-05-17 12:26:00,84.1,65.0,30.09,ENE,63,2.0,4.0,53,0.00,,,0.00,weatherlink.com 1.10,2013-05-17 16:26:00,
2013-05-17 12:41:00,82.2,65.0,30.09,North,11,3.0,9.0,56,0.00,,,0.00,weatherlink.com 1.10,2013-05-17 16:41:00,
2013-05-17 12:56:00,82.3,64.0,30.08,NNE,29,4.0,8.0,55,0.00,,,0.00,weatherlink.com 1.10,2013-05-17 16:56:00,
2013-05-17 13:11:00,82.8,64.0,30.08,North,349,6.0,10.0,53,0.00,,,0.00,weatherlink.com 1.10,2013-05-17 17:11:00,
2013-05-17 13:26:00,83.7,66.0,30.07,NNW,348,4.0,9.0,56,0.00,,,0.00,weatherlink.com 1.10,2013-05-17 17:26:00,
2013-05-17 13:41:00,84.0,63.0,30.07,NNW,339,9.0,10.0,50,0.00,,,0.00,weatherlink.com 1.10,2013-05-17 17:41:00,
2013-05-17 13:56:00,85.0,61.0,30.07,NE,51,1.0,5.0,44,0.00,,,0.00,weatherlink.com 1.10,2013-05-17 17:56:00,
2013-05-17 14:11:00,84.9,62.0,30.07,East,80,3.0,9.0,46,0.00,,,0.00,weatherlink.com 1.10,2013-05-17 18:11:00,
2013-05-17 14:26:00,86.2,62.0,30.06,NE,55,2.0,10.0,45,0.00,,,0.00,weatherlink.com 1.10,2013-05-17 18:26:00,
2013-05-17 14:41:00,84.9,61.0,30.06,ENE,59,7.0,13.0,44,0.00,,,0.00,weatherlink.com 1.10,2013-05-17 18:41:00,
2013-05-17 14:56:00,84.9,60.0,30.06,ENE,74,11.0,13.0,43,0.00,,,0.00,weatherlink.com 1.10,2013-05-17 18:56:00,
2013-05-17 15:11:00,85.9,60.0,30.05,NE,54,5.0,10.0,41,0.00,,,0.00,weatherlink.com 1.10,2013-05-17 19:11:00,
2013-05-17 15:26:00,86.4,59.0,30.05,East,89,1.0,12.0,39,0.00,,,0.00,weatherlink.com 1.10,2013-05-17 19:26:00,
2013-05-17 15:41:00,86.0,61.0,30.05,NE,42,8.0,12.0,43,0.00,,,0.00,weatherlink.com 1.10,2013-05-17 19:41:00,
2013-05-17 15:56:00,86.6,61.0,30.04,East,96,7.0,7.0,42,0.00,,,0.00,weatherlink.com 1.10,2013-05-17 19:56:00,
2013-05-17 16:11:00,86.4,59.0,30.04,ENE,68,3.0,12.0,40,0.00,,,0.00,weatherlink.com 1.10,2013-05-17 20:11:00,
2013-05-17 16:26:00,86.8,62.0,30.04,East,99,2.0,9.0,43,0.00,,,0.00,weatherlink.com 1.10,2013-05-17 20:26:00,
2013-05-17 16:41:00,86.7,59.0,30.04,SE,134,3.0,8.0,39,0.00,,,0.00,weatherlink.com 1.10,2013-05-17 20:41:00,
2013-05-17 16:56:00,87.2,61.0,30.04,East,82,3.0,9.0,41,0.00,,,0.00,weatherlink.com 1.10,2013-05-17 20:56:00,
2013-05-17 17:11:00,86.5,61.0,30.04,NE,44,5.0,10.0,42,0.00,,,0.00,weatherlink.com 1.10,2013-05-17 21:11:00,
2013-05-17 17:26:00,86.8,61.0,30.03,NE,54,2.0,7.0,42,0.00,,,0.00,weatherlink.com 1.10,2013-05-17 21:26:00,
2013-05-17 17:41:00,86.7,62.0,30.03,NNE,15,7.0,10.0,44,0.00,,,0.00,weatherlink.com 1.10,2013-05-17 21:41:00,
2013-05-17 17:56:00,86.7,60.0,30.02,SE,129,1.0,10.0,41,0.00,,,0.00,weatherlink.com 1.10,2013-05-17 21:56:00,
2013-05-17 18:11:00,86.8,62.0,30.03,ESE,112,5.0,11.0,44,0.00,,,0.00,weatherlink.com 1.10,2013-05-17 22:11:00,
2013-05-17 18:26:00,86.8,60.0,30.02,NE,49,3.0,8.0,40,0.00,,,0.00,weatherlink.com 1.10,2013-05-17 22:26:00,
2013-05-17 18:41:00,87.0,60.0,30.02,NE,47,0.0,5.0,40,0.00,,,0.00,weatherlink.com 1.10,2013-05-17 22:41:00,
2013-05-17 18:56:00,86.9,62.0,30.03,East,95,7.0,9.0,44,0.00,,,0.00,weatherlink.com 1.10,2013-05-17 22:56:00,
2013-05-17 19:11:00,85.9,61.0,30.03,SE,146,3.0,8.0,43,0.00,,,0.00,weatherlink.com 1.10,2013-05-17 23:11:00,
2013-05-17 19:27:00,85.4,61.0,30.03,SE,140,3.0,5.0,44,0.00,,,0.00,weatherlink.com 1.10,2013-05-17 23:27:00,
2013-05-17 19:42:00,82.9,69.0,30.03,SE,134,6.0,14.0,64,0.00,,,0.00,weatherlink.com 1.10,2013-05-17 23:42:00,
2013-05-17 19:57:00,81.2,69.0,30.04,SSE,148,6.0,15.0,67,0.00,,,0.00,weatherlink.com 1.10,2013-05-17 23:57:00,
2013-05-17 20:12:00,80.1,69.0,30.05,ESE,113,9.0,13.0,69,0.00,,,0.00,weatherlink.com 1.10,2013-05-18 00:12:00,
2013-05-17 20:27:00,79.2,69.0,30.05,ESE,121,12.0,13.0,70,0.00,,,0.00,weatherlink.com 1.10,2013-05-18 00:27:00,
2013-05-17 20:42:00,78.8,69.0,30.05,East,101,8.0,15.0,71,0.00,,,0.00,weatherlink.com 1.10,2013-05-18 00:42:00,
2013-05-17 20:57:00,78.2,68.0,30.06,ESE,120,4.0,12.0,72,0.00,,,0.00,weatherlink.com 1.10,2013-05-18 00:57:00,
2013-05-17 21:12:00,77.6,68.0,30.06,ESE,111,4.0,14.0,73,0.00,,,0.00,weatherlink.com 1.10,2013-05-18 01:12:00,
2013-05-17 21:27:00,77.1,68.0,30.06,SE,125,7.0,13.0,74,0.00,,,0.00,weatherlink.com 1.10,2013-05-18 01:27:00,
2013-05-17 21:42:00,76.6,68.0,30.07,SE,126,6.0,10.0,75,0.00,,,0.00,weatherlink.com 1.10,2013-05-18 01:42:00,
2013-05-17 21:57:00,76.4,69.0,30.07,SE,138,6.0,9.0,77,0.00,,,0.00,weatherlink.com 1.10,2013-05-18 01:57:00,
2013-05-17 22:12:00,75.7,68.0,30.07,ESE,103,3.0,8.0,78,0.00,,,0.00,weatherlink.com 1.10,2013-05-18 02:12:00,
2013-05-17 22:27:00,75.4,68.0,30.08,ESE,117,7.0,7.0,78,0.00,,,0.00,weatherlink.com 1.10,2013-05-18 02:27:00,
2013-05-17 22:42:00,75.1,68.0,30.09,ESE,119,4.0,7.0,79,0.00,,,0.00,weatherlink.com 1.10,2013-05-18 02:42:00,
2013-05-17 22:57:00,74.9,68.0,30.09,ESE,123,2.0,8.0,80,0.00,,,0.00,weatherlink.com 1.10,2013-05-18 02:57:00,
2013-05-17 23:12:00,74.0,68.0,30.09,ESE,123,3.0,5.0,81,0.00,,,0.00,weatherlink.com 1.10,2013-05-18 03:12:00,
2013-05-17 23:27:00,74.2,69.0,30.09,SE,139,5.0,9.0,83,0.00,,,0.00,weatherlink.com 1.10,2013-05-18 03:27:00,
2013-05-17 23:42:00,73.8,69.0,30.09,SE,129,4.0,9.0,84,0.00,,,0.00,weatherlink.com 1.10,2013-05-18 03:42:00,
2013-05-17 23:57:00,73.5,69.0,30.09,SE,140,4.0,7.0,85,0.00,,,0.00,weatherlink.com 1.10,2013-05-18 03:57:00,